Flag for France Weather past 2 weeks in Nantes, France

Now
50 °F

Partly sunny.


Feels Like: 47 °F
Forecast: 33 / 51 °F
Wind: 7 mph from Northwest

Location: Nantes Airport

Current Time: Dec 20, 2014 at 5:34:22 PM

Latest Report: Dec 20, 2014 at 5:00 PM


Visibility: N/A

Pressure: 30.54 "Hg

Humidity: 71%

Dew point: 41 °F

Location of NantesLocation

Historic Weather in Nantes — Graph

°F

Nantes temperature yesterday

Maximum temperature yesterday: 55 °F (at 3:00 PM)
Minimum temperature yesterday: 50 °F (at 9:00 PM)
Average temperature yesterday: 53 °F

Past Weeks' High & Low Weather Summary

 TemperatureHumidityPressure
High55 °F (Dec 10, 10:00 AM)100% (Dec 7, 5:00 AM)30.54 "Hg (Dec 7, 5:00 AM)
Low27 °F (Dec 7, 3:00 AM)53% (Dec 6, 4:00 PM)29.65 "Hg (Dec 12, 9:30 PM)
Average46 °F88%30.17 "Hg
* Reported Dec 5 4:00 PM — Dec 20 4:00 PM, Nantes, Weather by CustomWeather, © 2014

Note: Actual official high and low records may vary slightly from our data, if they occured in-between our weather recording intervals... More about our weather records

Advertising

Nantes weather history for previous 24 hours

 ConditionsComfort  
Time TempWeatherWind HumidityBarometerVisibility
4:00 PM
Dec 20
50 °FPartly sunny.7 mph67%30.51 "HgN/A
3:30 PM52 °FPartly sunny.7 mph62%30.51 "HgN/A
3:00 PM52 °FPartly sunny.8 mph62%30.51 "HgN/A
2:30 PM52 °FPartly sunny.7 mph62%30.51 "HgN/A
2:00 PM52 °FPartly sunny.7 mph67%30.51 "HgN/A
1:30 PM52 °FPartly sunny.7 mph62%30.54 "HgN/A
1:00 PM50 °FPartly sunny.7 mph67%30.54 "HgN/A
12:30 PM50 °FPartly sunny.6 mph67%30.54 "HgN/A
12:00 PM50 °FPartly sunny.6 mph67%30.54 "HgN/A
11:30 AM48 °FPartly sunny.6 mph76%30.54 "HgN/A
10:30 AM46 °FPartly sunny.2 mph82%30.51 "HgN/A
10:00 AM46 °FPartly sunny.1 mph82%30.51 "HgN/A
9:30 AM45 °FPartly sunny.2 mph81%30.51 "HgN/A
9:00 AM46 °FPartly sunny.3 mph76%30.48 "HgN/A
8:30 AM45 °FPassing clouds.1 mph81%30.48 "HgN/A
8:00 AM45 °FPassing clouds.2 mph81%30.48 "HgN/A
7:30 AM45 °FPassing clouds.2 mph81%30.48 "HgN/A
7:00 AM45 °FPassing clouds.2 mph81%30.48 "HgN/A
6:30 AM43 °FPassing clouds.No wind87%30.45 "HgN/A
6:00 AM43 °FPassing clouds.No wind93%30.45 "HgN/A
5:30 AM43 °FPassing clouds.1 mph93%30.45 "HgN/A
5:00 AM45 °FPassing clouds.3 mph93%30.45 "HgN/A
4:30 AM45 °FPassing clouds.3 mph93%30.45 "HgN/A
4:00 AM45 °FOvercast.3 mph93%30.45 "HgN/A
3:30 AM45 °FPassing clouds.3 mph93%30.45 "HgN/A
3:00 AM45 °FPassing clouds.3 mph93%30.42 "HgN/A
2:30 AM46 °FPassing clouds.3 mph87%30.42 "HgN/A
2:00 AM48 °FPassing clouds.5 mph87%30.42 "HgN/A
1:30 AM48 °FPassing clouds.5 mph94%30.42 "HgN/A
1:00 AM50 °FPassing clouds.5 mph88%30.42 "HgN/A
12:30 AM50 °FPassing clouds.3 mph94%30.42 "HgN/A
12:00 AM50 °FPassing clouds.3 mph94%30.42 "HgN/A
11:30 PM
Dec 19
50 °FPassing clouds.1 mph94%30.42 "HgN/A
11:00 PM50 °FMostly cloudy.2 mph94%30.39 "HgN/A
10:30 PM50 °FMostly cloudy.3 mph94%30.39 "HgN/A
10:00 PM50 °FMostly cloudy.3 mph94%30.39 "HgN/A
9:30 PM50 °FMostly cloudy.5 mph94%30.36 "HgN/A
9:00 PM50 °FDrizzle. Overcast.6 mph94%30.36 "HgN/A
8:30 PM52 °FDrizzle. Mostly cloudy.9 mph94%30.33 "HgN/A
8:00 PM54 °FLight rain. Low clouds.8 mph94%30.30 "Hg3 mi
7:30 PM55 °FLow clouds.9 mph94%30.30 "Hg4 mi
7:00 PM55 °FLow clouds.10 mph94%30.27 "Hg4 mi
6:30 PM55 °FLow clouds.9 mph94%30.27 "Hg4 mi
6:00 PM55 °FDrizzle. Low clouds.12 mph94%30.27 "Hg2 mi
5:30 PM55 °FDrizzle. Low clouds.12 mph94%30.27 "Hg2 mi
5:00 PM55 °FDrizzle. Low clouds.14 mph94%30.24 "Hg2 mi
Weather by CustomWeather, © 2014

See weather overviewHow to use our weather pages